ProjectID,Date,Electric Generation,Electric Utility Import,Facility Electric Load
,YYYY-MM-DD,kW,kW,kW
186,2014-03-01,0.0,,0.0
186,2014-03-02,0.0,,0.0
186,2014-03-03,0.0,,0.0
186,2014-03-04,0.0,,0.0
186,2014-03-05,0.0,,0.0
186,2014-03-06,0.0,,0.0
186,2014-03-07,0.0,,0.0
186,2014-03-08,0.0,,0.0
186,2014-03-09,0.0,,0.0
186,2014-03-10,0.0,,0.0
186,2014-03-11,0.0,,0.0
186,2014-03-12,0.0,,0.0
186,2014-03-13,0.0,,0.0
186,2014-03-14,0.0,,0.0
186,2014-03-15,66.29583333333333,,66.29583333333333
186,2014-03-16,72.11083333333333,,72.11083333333333
186,2014-03-17,49.32833333333334,,49.32833333333334
186,2014-03-18,90.03250000000001,,90.03250000000001
186,2014-03-19,31.888333333333335,,31.888333333333335
186,2014-03-20,59.604166666666664,,59.604166666666664
186,2014-03-21,88.24166666666667,,88.24166666666667
186,2014-03-22,63.138416666666664,,63.138416666666664
186,2014-03-23,41.285000000000004,,41.285000000000004
186,2014-03-24,87.26583333333333,,87.26583333333333
186,2014-03-25,59.755833333333335,,59.755833333333335
186,2014-03-26,89.60666666666667,,89.60666666666667
186,2014-03-27,81.73166666666667,,81.73166666666667
186,2014-03-28,18.633333333333333,,18.633333333333333
186,2014-03-29,13.871666666666668,,13.871666666666668
186,2014-03-30,19.839125,,19.839125
186,2014-03-31,63.42679166666667,,63.42679166666667
186,2014-04-01,65.86579166666667,,65.86579166666667
186,2014-04-02,24.918291666666665,,24.918291666666665
186,2014-04-03,66.43412500000001,,66.43412500000001
186,2014-04-04,8.899208333333332,,8.899208333333332
186,2014-04-05,68.31575,,68.31575
186,2014-04-06,77.39920833333333,,77.39920833333333
186,2014-04-07,25.340875,,25.340875
186,2014-04-08,43.64245833333334,,43.64245833333334
186,2014-04-09,75.86833333333333,,75.86833333333333
186,2014-04-10,78.65666666666667,,78.65666666666667
186,2014-04-11,46.70666666666667,,46.70666666666667
186,2014-04-12,6.564208333333333,,6.564208333333333
186,2014-04-13,0.0,,0.0
186,2014-04-14,52.01166666666666,,52.01166666666666
186,2014-04-15,4.095833333333333,,4.095833333333333
186,2014-04-16,0.0,,0.0
186,2014-04-17,50.49425,,50.49425
186,2014-04-18,70.399125,,70.399125
186,2014-04-19,106.76916666666666,,106.76916666666666
186,2014-04-20,108.83758333333333,,108.83758333333333
186,2014-04-21,107.07845833333333,,107.07845833333333
186,2014-04-22,76.62162500000001,,76.62162500000001
186,2014-04-23,69.36254166666667,,69.36254166666667
186,2014-04-24,136.72141666666667,,136.72141666666667
186,2014-04-25,73.24020833333334,,73.24020833333334
186,2014-04-26,83.90412500000001,,83.90412500000001
186,2014-04-27,83.42991666666667,,83.42991666666667
186,2014-04-28,108.09254166666666,,108.09254166666666
186,2014-04-29,20.154291666666666,,20.154291666666666
186,2014-04-30,6.984125,,6.984125
186,2014-05-01,75.77912500000001,,75.77912500000001
186,2014-05-02,73.36595833333332,,73.36595833333332
186,2014-05-03,89.790125,,89.790125
186,2014-05-04,62.25666666666667,,62.25666666666667
186,2014-05-05,112.64420833333332,,112.64420833333332
186,2014-05-06,83.99154166666666,,83.99154166666666
186,2014-05-07,101.64504166666667,,101.64504166666667
186,2014-05-08,16.760833333333334,,16.760833333333334
186,2014-05-09,18.8125,,18.8125
186,2014-05-10,69.950125,,69.950125
186,2014-05-11,110.44245833333333,,110.44245833333333
186,2014-05-12,81.55,,81.55
186,2014-05-13,99.84654166666667,,99.84654166666667
186,2014-05-14,64.14920833333333,,64.14920833333333
186,2014-05-15,31.363375,,31.363375
186,2014-05-16,29.75491666666667,,29.75491666666667
186,2014-05-17,104.71016666666667,,104.71016666666667
186,2014-05-18,90.58720833333332,,90.58720833333332
186,2014-05-19,87.84945833333335,,87.84945833333335
186,2014-05-20,109.79129166666667,,109.79129166666667
186,2014-05-21,61.343583333333335,,61.343583333333335
186,2014-05-22,22.507958333333335,,22.507958333333335
186,2014-05-23,56.62466666666666,,56.62466666666666
186,2014-05-24,49.70916666666667,,49.70916666666667
186,2014-05-25,109.05466666666666,,109.05466666666666
186,2014-05-26,101.10058333333335,,101.10058333333335
186,2014-05-27,63.08625,,63.08625
186,2014-05-28,27.114874999999998,,27.114874999999998
186,2014-05-29,93.46679166666667,,93.46679166666667
186,2014-05-30,91.9045,,91.9045
186,2014-05-31,85.07079166666666,,85.07079166666666
186,2014-06-01,110.12045833333333,,110.12045833333333
186,2014-06-02,109.49070833333333,,109.49070833333333
186,2014-06-03,95.21570833333334,,95.21570833333334
186,2014-06-04,79.13866666666667,,79.13866666666667
186,2014-06-05,57.815583333333336,,57.815583333333336
186,2014-06-06,86.949875,,86.949875
186,2014-06-07,111.12774999999999,,111.12774999999999
186,2014-06-08,101.01495833333333,,101.01495833333333
186,2014-06-09,13.385125,,13.385125
186,2014-06-10,60.352583333333335,,60.352583333333335
186,2014-06-11,48.70245833333333,,48.70245833333333
186,2014-06-12,23.368666666666666,,23.368666666666666
186,2014-06-13,64.623375,,64.623375
186,2014-06-14,102.26108333333333,,102.26108333333333
186,2014-06-15,112.26170833333333,,112.26170833333333
186,2014-06-16,108.64504166666667,,108.64504166666667
186,2014-06-17,83.71970833333333,,83.71970833333333
186,2014-06-18,106.30079166666667,,106.30079166666667
186,2014-06-19,46.042458333333336,,46.042458333333336
186,2014-06-20,108.94666666666666,,108.94666666666666
186,2014-06-21,105.00454166666667,,105.00454166666667
186,2014-06-22,87.96079166666668,,87.96079166666668
186,2014-06-23,96.52291666666667,,96.52291666666667
186,2014-06-24,89.72454166666667,,89.72454166666667
186,2014-06-25,84.02004166666667,,84.02004166666667
186,2014-06-26,76.600375,,76.600375
186,2014-06-27,95.37370833333334,,95.37370833333334
186,2014-06-28,103.76495833333333,,103.76495833333333
186,2014-06-29,108.46895833333333,,108.46895833333333
186,2014-06-30,98.06712499999999,,98.06712499999999
186,2014-07-01,89.9925,,89.9925
186,2014-07-02,93.653375,,93.653375
186,2014-07-03,89.053,,89.053
186,2014-07-04,37.833416666666665,,37.833416666666665
186,2014-07-05,112.56870833333333,,112.56870833333333
186,2014-07-06,108.84529166666665,,108.84529166666665
186,2014-07-07,101.33129166666667,,101.33129166666667
186,2014-07-08,91.15908333333334,,91.15908333333334
186,2014-07-09,86.10258333333333,,86.10258333333333
186,2014-07-10,83.53366666666666,,83.53366666666666
186,2014-07-11,90.12320833333332,,90.12320833333332
186,2014-07-12,102.662375,,102.662375
186,2014-07-13,66.910375,,66.910375
186,2014-07-14,55.054875,,55.054875
186,2014-07-15,49.205375000000004,,49.205375000000004
186,2014-07-16,70.69333333333334,,70.69333333333334
186,2014-07-17,68.38199999999999,,68.38199999999999
186,2014-07-18,103.00333333333333,,103.00333333333333
186,2014-07-19,55.413833333333336,,55.413833333333336
186,2014-07-20,97.4575,,97.4575
186,2014-07-21,87.98104166666667,,87.98104166666667
186,2014-07-22,92.40541666666667,,92.40541666666667
186,2014-07-23,92.09216666666667,,92.09216666666667
186,2014-07-24,73.23291666666667,,73.23291666666667
186,2014-07-25,101.25220833333333,,101.25220833333333
186,2014-07-26,60.02020833333333,,60.02020833333333
186,2014-07-27,62.745749999999994,,62.745749999999994
186,2014-07-28,75.75566666666667,,75.75566666666667
186,2014-07-29,85.85291666666666,,85.85291666666666
186,2014-07-30,85.22495833333333,,85.22495833333333
186,2014-07-31,69.98958333333333,,69.98958333333333
186,2014-08-01,57.903999999999996,,57.903999999999996
186,2014-08-02,62.768791666666665,,62.768791666666665
186,2014-08-03,62.07870833333333,,62.07870833333333
186,2014-08-04,61.147166666666664,,61.147166666666664
186,2014-08-05,88.49341666666668,,88.49341666666668
186,2014-08-06,71.85312499999999,,71.85312499999999
186,2014-08-07,91.41916666666667,,91.41916666666667
186,2014-08-08,94.13683333333334,,94.13683333333334
186,2014-08-09,98.07070833333334,,98.07070833333334
186,2014-08-10,82.2775,,82.2775
186,2014-08-11,88.13320833333334,,88.13320833333334
186,2014-08-12,43.96504166666667,,43.96504166666667
186,2014-08-13,36.869166666666665,,36.869166666666665
186,2014-08-14,98.21166666666666,,98.21166666666666
186,2014-08-15,70.50375,,70.50375
186,2014-08-16,0.0,,0.0
186,2014-08-17,0.0,,0.0
186,2014-08-18,0.0,,0.0
186,2014-08-19,0.0,,0.0
186,2014-08-20,10.922916666666666,,10.922916666666666
186,2014-08-21,72.005,,72.005
186,2014-08-22,63.303333333333335,,63.303333333333335
186,2014-08-23,52.138749999999995,,52.138749999999995
186,2014-08-24,93.65041666666667,,93.65041666666667
186,2014-08-25,93.64083333333333,,93.64083333333333
186,2014-08-26,78.64333333333333,,78.64333333333333
186,2014-08-27,87.77,,87.77
186,2014-08-28,94.50999999999999,,94.50999999999999
186,2014-08-29,94.53416666666668,,94.53416666666668
186,2014-08-30,60.44625,,60.44625
186,2014-08-31,54.50625,,54.50625
186,2014-09-01,69.34416666666667,,69.34416666666667
186,2014-09-02,77.28208333333333,,77.28208333333333
186,2014-09-03,80.89625,,80.89625
186,2014-09-04,87.32333333333334,,87.32333333333334
186,2014-09-05,63.2125,,63.2125
186,2014-09-06,57.7125,,57.7125
186,2014-09-07,79.1475,,79.1475
186,2014-09-08,51.229166666666664,,51.229166666666664
186,2014-09-09,40.43875,,40.43875
186,2014-09-10,74.82875,,74.82875
186,2014-09-11,36.77,,36.77
186,2014-09-12,84.65708333333333,,84.65708333333333
186,2014-09-13,21.37708333333333,,21.37708333333333
186,2014-09-14,91.91083333333334,,91.91083333333334
186,2014-09-15,88.02208333333334,,88.02208333333334
186,2014-09-16,35.365833333333335,,35.365833333333335
186,2014-09-17,88.94208333333334,,88.94208333333334
186,2014-09-18,68.35375,,68.35375
186,2014-09-19,86.58875,,86.58875
186,2014-09-20,64.92833333333333,,64.92833333333333
186,2014-09-21,26.683333333333334,,26.683333333333334
186,2014-09-22,72.46041666666666,,72.46041666666666
186,2014-09-23,82.85291666666667,,82.85291666666667
186,2014-09-24,48.90166666666667,,48.90166666666667
186,2014-09-25,20.029166666666665,,20.029166666666665
186,2014-09-26,82.69083333333333,,82.69083333333333
186,2014-09-27,80.0175,,80.0175
186,2014-09-28,70.11833333333333,,70.11833333333333
186,2014-09-29,32.22,,32.22
186,2014-09-30,19.5,,19.5
186,2014-10-01,8.8225,,8.8225
186,2014-10-02,34.65083333333333,,34.65083333333333
186,2014-10-03,77.665,,77.665
186,2014-10-04,0.8783333333333333,,0.8783333333333333
186,2014-10-05,46.21212499999999,,46.21212499999999
186,2014-10-06,48.187000000000005,,48.187000000000005
186,2014-10-07,48.187000000000005,,48.187000000000005
186,2014-10-08,48.187000000000005,,48.187000000000005
186,2014-10-09,48.187000000000005,,48.187000000000005
186,2014-10-10,48.187000000000005,,48.187000000000005
186,2014-10-11,48.187000000000005,,48.187000000000005
186,2014-10-12,48.187000000000005,,48.187000000000005
186,2014-10-13,48.187000000000005,,48.187000000000005
186,2014-10-14,48.187000000000005,,48.187000000000005
186,2014-10-15,48.187000000000005,,48.187000000000005
186,2014-10-16,48.187000000000005,,48.187000000000005
186,2014-10-17,48.187000000000005,,48.187000000000005
186,2014-10-18,48.187000000000005,,48.187000000000005
186,2014-10-19,48.187000000000005,,48.187000000000005
186,2014-10-20,48.187000000000005,,48.187000000000005
186,2014-10-21,48.187000000000005,,48.187000000000005
186,2014-10-22,48.187000000000005,,48.187000000000005
186,2014-10-23,48.187000000000005,,48.187000000000005
186,2014-10-24,48.187000000000005,,48.187000000000005
186,2014-10-25,48.187000000000005,,48.187000000000005
186,2014-10-26,48.187000000000005,,48.187000000000005
186,2014-10-27,48.187000000000005,,48.187000000000005
186,2014-10-28,48.187000000000005,,48.187000000000005
186,2014-10-29,48.187000000000005,,48.187000000000005
186,2014-10-30,48.187000000000005,,48.187000000000005
186,2014-10-31,31.88745833333333,,31.88745833333333
186,2014-11-01,4.033333333333333,,4.033333333333333
186,2014-11-02,50.5375,,50.5375
186,2014-11-03,58.51125,,58.51125
186,2014-11-04,52.39875,,52.39875
186,2014-11-05,16.4275,,16.4275
186,2014-11-06,2.830416666666667,,2.830416666666667
186,2014-11-07,37.889583333333334,,37.889583333333334
186,2014-11-08,52.63708333333333,,52.63708333333333
186,2014-11-09,34.39541666666667,,34.39541666666667
186,2014-11-10,51.13166666666667,,51.13166666666667
186,2014-11-11,30.82875,,30.82875
186,2014-11-12,18.04125,,18.04125
186,2014-11-13,32.83541666666667,,32.83541666666667
186,2014-11-14,55.1,,55.1
186,2014-11-15,52.32666666666666,,52.32666666666666
186,2014-11-16,10.815833333333332,,10.815833333333332
186,2014-11-17,3.313333333333333,,3.313333333333333
186,2014-11-18,53.55875,,53.55875
186,2014-11-19,51.26833333333334,,51.26833333333334
186,2014-11-20,37.85208333333333,,37.85208333333333
186,2014-11-21,49.668749999999996,,49.668749999999996
186,2014-11-22,46.05041666666667,,46.05041666666667
186,2014-11-23,38.07875,,38.07875
186,2014-11-24,24.545,,24.545
186,2014-11-25,14.111666666666666,,14.111666666666666
186,2014-11-26,0.9187500000000001,,0.9187500000000001
186,2014-11-27,10.080833333333333,,10.080833333333333
186,2014-11-28,33.13333333333333,,33.13333333333333
186,2014-11-29,18.84375,,18.84375
186,2014-11-30,24.215833333333332,,24.215833333333332
186,2014-12-01,26.645416666666666,,26.645416666666666
186,2014-12-02,8.39125,,8.39125
186,2014-12-03,5.6379166666666665,,5.6379166666666665
186,2014-12-04,38.39333333333334,,38.39333333333334
186,2014-12-05,10.456249999999999,,10.456249999999999
186,2014-12-06,3.2079166666666663,,3.2079166666666663
186,2014-12-07,43.99375,,43.99375
186,2014-12-08,11.33625,,11.33625
186,2014-12-09,7.905,,7.905
186,2014-12-10,22.45,,22.45
186,2014-12-11,22.45,,22.45
186,2014-12-12,22.45,,22.45
186,2014-12-13,22.45,,22.45
186,2014-12-14,22.45,,22.45
186,2014-12-15,22.45,,22.45
186,2014-12-16,22.45,,22.45
186,2014-12-17,22.45,,22.45
186,2014-12-18,22.45,,22.45
186,2014-12-19,22.45,,22.45
186,2014-12-20,22.45,,22.45
186,2014-12-21,22.45,,22.45
186,2014-12-22,22.45,,22.45
186,2014-12-23,22.45,,22.45
186,2014-12-24,22.45,,22.45
186,2014-12-25,22.45,,22.45
186,2014-12-26,22.45,,22.45
186,2014-12-27,22.45,,22.45
186,2014-12-28,22.45,,22.45
186,2014-12-29,22.45,,22.45
186,2014-12-30,22.45,,22.45
186,2014-12-31,22.45,,22.45
186,2015-01-01,22.45,,22.45
186,2015-01-02,22.45,,22.45
186,2015-01-03,22.45,,22.45
186,2015-01-04,22.45,,22.45
186,2015-01-05,22.45,,22.45
186,2015-01-06,22.45,,22.45
186,2015-01-07,22.45,,22.45
186,2015-01-08,22.45,,22.45
186,2015-01-09,22.45,,22.45
186,2015-01-10,22.45,,22.45
186,2015-01-11,22.45,,22.45
186,2015-01-12,14.667708333333332,,14.667708333333332
186,2015-01-13,48.8825,,48.8825
186,2015-01-14,28.535416666666666,,28.535416666666666
186,2015-01-15,38.915,,38.915
186,2015-01-16,38.43,,38.43
186,2015-01-17,48.16,,48.16
186,2015-01-18,1.3016666666666665,,1.3016666666666665
186,2015-01-19,22.274583333333336,,22.274583333333336
186,2015-01-20,32.035000000000004,,32.035000000000004
186,2015-01-21,28.822916666666668,,28.822916666666668
186,2015-01-22,31.366249999999997,,31.366249999999997
186,2015-01-23,49.965,,49.965
186,2015-01-24,0.0,,0.0
186,2015-01-25,4.39375,,4.39375
186,2015-01-26,1.6808333333333334,,1.6808333333333334
186,2015-01-27,0.0,,0.0
186,2015-01-28,0.08541666666666665,,0.08541666666666665
186,2015-01-29,0.35833333333333334,,0.35833333333333334
186,2015-01-30,0.12041666666666667,,0.12041666666666667
186,2015-01-31,1.6695833333333334,,1.6695833333333334
186,2015-02-01,1.3366666666666667,,1.3366666666666667
186,2015-02-02,0.0,,0.0
186,2015-02-03,0.0,,0.0
186,2015-02-04,0.0,,0.0
186,2015-02-05,0.01875,,0.01875
186,2015-02-06,0.008333333333333333,,0.008333333333333333
186,2015-02-07,0.0,,0.0
186,2015-02-08,0.0,,0.0
186,2015-02-09,0.0,,0.0
186,2015-02-10,0.018333333333333333,,0.018333333333333333
186,2015-02-11,0.24875,,0.24875
186,2015-02-12,0.03,,0.03
186,2015-02-13,0.58625,,0.58625
186,2015-02-14,0.0,,0.0
186,2015-02-15,0.5179166666666667,,0.5179166666666667
186,2015-02-16,0.5345833333333333,,0.5345833333333333
186,2015-02-17,0.0,,0.0
186,2015-02-18,0.0,,0.0
186,2015-02-19,0.32208333333333333,,0.32208333333333333
186,2015-02-20,0.87,,0.87
186,2015-02-21,0.06541666666666666,,0.06541666666666666
186,2015-02-22,0.0,,0.0
186,2015-02-23,0.03125,,0.03125
186,2015-02-24,0.028749999999999998,,0.028749999999999998
186,2015-02-25,0.05125,,0.05125
186,2015-02-26,0.12541666666666665,,0.12541666666666665
186,2015-02-27,0.3354166666666667,,0.3354166666666667
186,2015-02-28,0.6329166666666667,,0.6329166666666667
186,2015-03-01,0.005416666666666667,,0.005416666666666667
186,2015-03-02,0.0,,0.0
186,2015-03-03,0.0,,0.0
186,2015-03-04,0.0,,0.0
186,2015-03-05,0.0,,0.0
186,2015-03-06,0.0,,0.0
186,2015-03-07,0.0,,0.0
186,2015-03-08,1.0866666666666667,,1.0866666666666667
186,2015-03-09,20.848333333333333,,20.848333333333333
186,2015-03-10,23.240416666666665,,23.240416666666665
186,2015-03-11,64.32833333333333,,64.32833333333333
186,2015-03-12,91.41541666666666,,91.41541666666666
186,2015-03-13,84.07666666666667,,84.07666666666667
186,2015-03-14,12.579166666666666,,12.579166666666666
186,2015-03-15,20.708333333333332,,20.708333333333332
186,2015-03-16,52.951249999999995,,52.951249999999995
186,2015-03-17,41.45375,,41.45375
186,2015-03-18,60.374583333333334,,60.374583333333334
186,2015-03-19,95.04208333333334,,95.04208333333334
186,2015-03-20,16.909166666666668,,16.909166666666668
186,2015-03-21,11.47875,,11.47875
186,2015-03-22,100.57166666666666,,100.57166666666666
186,2015-03-23,102.16583333333334,,102.16583333333334
186,2015-03-24,89.00791666666667,,89.00791666666667
186,2015-03-25,59.39166666666667,,59.39166666666667
186,2015-03-26,21.27208333333333,,21.27208333333333
186,2015-03-27,23.254166666666666,,23.254166666666666
186,2015-03-28,32.0425,,32.0425
186,2015-03-29,104.9575,,104.9575
186,2015-03-30,46.29958333333334,,46.29958333333334
186,2015-03-31,42.4375,,42.4375
186,2015-04-01,94.22541666666666,,94.22541666666666
186,2015-04-02,95.11666666666667,,95.11666666666667
186,2015-04-03,18.56125,,18.56125
186,2015-04-04,102.80083333333333,,102.80083333333333
186,2015-04-05,68.88291666666667,,68.88291666666667
186,2015-04-06,93.35458333333334,,93.35458333333334
186,2015-04-07,26.39,,26.39
186,2015-04-08,22.622500000000002,,22.622500000000002
186,2015-04-09,18.257916666666667,,18.257916666666667
186,2015-04-10,23.581666666666667,,23.581666666666667
186,2015-04-11,103.8925,,103.8925
186,2015-04-12,101.96375,,101.96375
186,2015-04-13,91.48208333333334,,91.48208333333334
186,2015-04-14,27.24625,,27.24625
186,2015-04-15,99.4575,,99.4575
186,2015-04-16,95.295,,95.295
186,2015-04-17,37.687083333333334,,37.687083333333334
186,2015-04-18,96.57416666666667,,96.57416666666667
186,2015-04-19,100.66416666666667,,100.66416666666667
186,2015-04-20,46.249125,,46.249125
186,2015-04-21,85.574,,85.574
186,2015-04-22,85.574,,85.574
186,2015-04-23,85.574,,85.574
186,2015-04-24,85.574,,85.574
186,2015-04-25,85.574,,85.574
186,2015-04-26,85.574,,85.574
186,2015-04-27,85.574,,85.574
186,2015-04-28,85.574,,85.574
186,2015-04-29,85.574,,85.574
186,2015-04-30,85.574,,85.574
186,2015-05-01,87.06870833333333,,87.06870833333333
186,2015-05-02,105.49225,,105.49225
186,2015-05-03,101.88937499999999,,101.88937499999999
186,2015-05-04,99.025375,,99.025375
186,2015-05-05,58.868500000000004,,58.868500000000004
186,2015-05-06,36.73708333333334,,36.73708333333334
186,2015-05-07,95.25720833333332,,95.25720833333332
186,2015-05-08,0.0,,0.0
186,2015-05-09,0.0,,0.0
186,2015-05-10,0.0,,0.0
186,2015-05-11,73.26504166666668,,73.26504166666668
186,2015-05-12,76.54825,,76.54825
186,2015-05-13,80.583375,,80.583375
186,2015-05-14,106.44858333333333,,106.44858333333333
186,2015-05-15,81.63866666666667,,81.63866666666667
186,2015-05-16,56.64779166666667,,56.64779166666667
186,2015-05-17,74.21491666666667,,74.21491666666667
186,2015-05-18,26.546291666666665,,26.546291666666665
186,2015-05-19,63.6615,,63.6615
186,2015-05-20,90.237625,,90.237625
186,2015-05-21,49.29829166666667,,49.29829166666667
186,2015-05-22,78.73049999999999,,78.73049999999999
186,2015-05-23,115.35416666666667,,115.35416666666667
186,2015-05-24,104.48304166666667,,104.48304166666667
186,2015-05-25,95.97795833333333,,95.97795833333333
186,2015-05-26,97.23825,,97.23825
186,2015-05-27,82.203875,,82.203875
186,2015-05-28,86.12495833333332,,86.12495833333332
186,2015-05-29,103.92899999999999,,103.92899999999999
186,2015-05-30,104.15183333333333,,104.15183333333333
186,2015-05-31,66.24808333333333,,66.24808333333333
186,2015-06-01,0.0,,0.0
186,2015-06-02,0.0,,0.0
186,2015-06-03,0.0,,0.0
186,2015-06-04,0.0,,0.0
186,2015-06-05,0.0,,0.0
186,2015-06-06,0.0,,0.0
186,2015-06-07,0.0,,0.0
186,2015-06-08,54.275416666666665,,54.275416666666665
186,2015-06-09,59.423125,,59.423125
186,2015-06-10,104.400375,,104.400375
186,2015-06-11,80.58529166666666,,80.58529166666666
186,2015-06-12,90.04429166666667,,90.04429166666667
186,2015-06-13,98.36333333333333,,98.36333333333333
186,2015-06-14,89.71554166666665,,89.71554166666665
186,2015-06-15,38.78841666666667,,38.78841666666667
186,2015-06-16,50.85874999999999,,50.85874999999999
186,2015-06-17,81.27745833333334,,81.27745833333334
186,2015-06-18,36.513,,36.513
186,2015-06-19,81.72083333333333,,81.72083333333333
186,2015-06-20,20.144583333333333,,20.144583333333333
186,2015-06-21,77.28575,,77.28575
186,2015-06-22,104.78516666666667,,104.78516666666667
186,2015-06-23,73.19341666666666,,73.19341666666666
186,2015-06-24,111.87575,,111.87575
186,2015-06-25,82.294375,,82.294375
186,2015-06-26,92.218125,,92.218125
186,2015-06-27,27.375666666666664,,27.375666666666664
186,2015-06-28,38.70970833333333,,38.70970833333333
186,2015-06-29,73.54291666666667,,73.54291666666667
186,2015-06-30,93.46816666666666,,93.46816666666666
186,2015-07-01,84.79241666666667,,84.79241666666667
186,2015-07-02,60.25258333333333,,60.25258333333333
186,2015-07-03,99.720125,,99.720125
186,2015-07-04,52.34379166666667,,52.34379166666667
186,2015-07-05,95.35820833333334,,95.35820833333334
186,2015-07-06,78.75658333333332,,78.75658333333332
186,2015-07-07,78.86783333333334,,78.86783333333334
186,2015-07-08,52.347,,52.347
186,2015-07-09,46.895916666666665,,46.895916666666665
186,2015-07-10,106.297625,,106.297625
186,2015-07-11,97.95441666666666,,97.95441666666666
186,2015-07-12,86.602875,,86.602875
186,2015-07-13,89.756625,,89.756625
186,2015-07-14,50.224583333333335,,50.224583333333335
186,2015-07-15,26.948666666666668,,26.948666666666668
186,2015-07-16,107.85083333333334,,107.85083333333334
186,2015-07-17,101.56583333333333,,101.56583333333333
186,2015-07-18,55.50779166666666,,55.50779166666666
186,2015-07-19,95.255875,,95.255875
186,2015-07-20,81.85741666666667,,81.85741666666667
186,2015-07-21,51.055375,,51.055375
186,2015-07-22,104.213625,,104.213625
186,2015-07-23,102.71233333333333,,102.71233333333333
186,2015-07-24,101.01691666666666,,101.01691666666666
186,2015-07-25,99.58266666666667,,99.58266666666667
186,2015-07-26,76.15241666666667,,76.15241666666667
186,2015-07-27,83.16679166666667,,83.16679166666667
186,2015-07-28,80.12166666666667,,80.12166666666667
186,2015-07-29,82.13741666666667,,82.13741666666667
186,2015-07-30,32.22270833333334,,32.22270833333334
186,2015-07-31,102.72791666666666,,102.72791666666666
186,2015-08-01,86.26370833333334,,86.26370833333334
186,2015-08-02,98.28716666666666,,98.28716666666666
186,2015-08-03,94.47145833333333,,94.47145833333333
186,2015-08-04,94.74216666666666,,94.74216666666666
186,2015-08-05,78.836625,,78.836625
186,2015-08-06,87.252,,87.252
186,2015-08-07,102.013125,,102.013125
186,2015-08-08,85.836,,85.836
186,2015-08-09,93.75920833333333,,93.75920833333333
186,2015-08-10,88.00395833333333,,88.00395833333333